Regional Weather Roundup
Issued by NWS Little Rock, AR

Home | Current Version | Previous Version | Text Only | Print | Product List | Glossary On
Versions: 1 2 3 4 5 6 7 8 9 10 11 12 13 14 15 16 17 18 19 20 21 22 23 24 25 26 27
000
ASUS44 KLZK 251305
RWRLZK

WEATHER ROUNDUP FOR ARKANSAS
NATIONAL WEATHER SERVICE LITTLE ROCK AR
800 AM CDT SAT OCT 25 2014

NOTE: "FAIR" INDICATES FEW OR NO CLOUDS BELOW 12,000 FEET WITH NO
SIGNIFICANT WEATHER AND/OR OBSTRUCTIONS TO VISIBILITY.

ARZ001-003-010-029-251400-
NORTHWEST ARKANSAS

CITY           SKY/WX    TMP DP  RH WIND       PRES   REMARKS
FAYETTEVILLE   CLEAR     59  58  96 S8        30.11S
FORT SMITH     FOG       57  55  93 E5        30.11R VSB 3/4
HARRISON       CLEAR     68  59  73 W9G18     30.09S
BENTONVILLE    CLEAR     55  54  94 CALM      30.10S
ROGERS         CLEAR     61  57  87 SW7       30.11S
SILOAM SPGS    CLEAR     57  52  82 S6        30.11S
HIGHFILL       CLEAR     59  57  93 SW3       30.10R FOG
SPRINGDALE     CLEAR     55  55 100 CALM      30.12S FOG
$$

ARZ004-005-016-251400-
NORTH CENTRAL ARKANSAS

CITY           SKY/WX    TMP DP  RH WIND       PRES   REMARKS
BATESVILLE     CLEAR     61  57  88 CALM      30.07S
FLIPPIN          N/A     52  48  87 CALM      30.08S VSB 1/2
MTN HOME       CLEAR     61  58  90 SW3       30.07S
$$

ARZ040-041-251400-
WEST CENTRAL ARKANSAS

CITY           SKY/WX    TMP DP  RH WIND       PRES   REMARKS
MENA           CLEAR     64  61  88 CALM      30.15R
MOUNT IDA      CLEAR     55  53  93 CALM      30.11R FOG
$$

ARZ009-017-025-026-028-251400-
NORTHEAST ARKANSAS

CITY           SKY/WX    TMP DP  RH WIND       PRES   REMARKS
CORNING        FAIR      55  55 100 SW3       30.07R FOG
JONESBORO      CLEAR     58  56  93 SW6       30.07S
NEWPORT        CLEAR     56  55  96 S6        30.09S FOG
WALNUT RIDGE   CLEAR     54  50  87 S5        30.06S
BLYTHEVILLE    CLEAR     58  55  90 SW7       30.07S
$$

ARZ022-023-033-042-044-251400-
CENTRAL ARKANSAS

CITY           SKY/WX    TMP DP  RH WIND       PRES   REMARKS
LITTLE ROCK    CLEAR     59  55  87 SW6       30.11S
N LITTLE ROCK    N/A     63  60  90 W5        30.11S
JACKSONVILLE   CLEAR     52  50  93 CALM      30.10S
SEARCY         CLEAR     52  52 100 CALM      30.11S FOG
HOT SPRINGS    CLEAR     55  54  96 CALM      30.13R FOG
RUSSELLVILLE   CLEAR     54  52  93 CALM      30.11S FOG
$$

ARZ036-251400-
EAST ARKANSAS

CITY           SKY/WX    TMP DP  RH WIND       PRES   REMARKS
WEST MEMPHIS   CLEAR     58  56  93 SW7       30.09R
$$

ARZ050-053-066-070-073-251400-
SOUTHWEST ARKANSAS

CITY           SKY/WX    TMP DP  RH WIND       PRES   REMARKS
ARKADELPHIA    FAIR      53  53 100 CALM      30.14R FOG
CAMDEN         CLEAR     50  46  87 CALM      30.14S
TEXARKANA      CLEAR     58  56  93 CALM      30.14S
EL DORADO      CLEAR     51  50  96 CALM      30.15R
DE QUEEN       FOG       53  53 100 CALM      30.13R VSB 1/4
$$

ARZ056-057-069-251400-
SOUTHEAST ARKANSAS

CITY           SKY/WX    TMP DP  RH WIND       PRES   REMARKS
PINE BLUFF     CLEAR     56  53  90 SW6       30.12S
STUTTGART      CLEAR     57  54  88 SW3       30.12R
MONTICELLO     CLEAR     58  54  86 W7        30.13R

$$





USA.gov is the U.S. government's official web portal to all federal, state and local government web resources and services.